Year,Month,Day,Hour,Minute,Value (Times are PST for temperature in C)
2018,10,21,00,00,7.50
2018,10,21,00,01,7.50
2018,10,21,00,02,7.50
2018,10,21,00,03,7.50
2018,10,21,00,04,7.50
2018,10,21,00,05,7.50
2018,10,21,00,06,7.50
2018,10,21,00,07,7.50
2018,10,21,00,08,7.50
2018,10,21,00,09,7.50
2018,10,21,00,10,7.50
2018,10,21,00,11,7.50
2018,10,21,00,12,7.40
2018,10,21,00,13,7.40
2018,10,21,00,14,7.40
2018,10,21,00,15,7.40
2018,10,21,00,16,7.40
2018,10,21,00,17,7.40
2018,10,21,00,18,7.40
2018,10,21,00,19,7.40
2018,10,21,00,20,7.40
2018,10,21,00,21,7.40
2018,10,21,00,22,7.40
2018,10,21,00,23,7.30
2018,10,21,00,24,7.30
2018,10,21,00,25,7.30
2018,10,21,00,26,7.30
2018,10,21,00,27,7.30
2018,10,21,00,28,7.40
2018,10,21,00,29,7.40
2018,10,21,00,30,7.40
2018,10,21,00,31,7.40
2018,10,21,00,32,7.40
2018,10,21,00,33,7.40
2018,10,21,00,34,7.40
2018,10,21,00,35,7.30
2018,10,21,00,36,7.30
2018,10,21,00,37,7.30
2018,10,21,00,38,7.30
2018,10,21,00,39,7.30
2018,10,21,00,40,7.30
2018,10,21,00,41,7.30
2018,10,21,00,42,7.30
2018,10,21,00,43,7.30
2018,10,21,00,44,7.30
2018,10,21,00,45,7.30
2018,10,21,00,46,7.40
2018,10,21,00,47,7.40
2018,10,21,00,48,7.40
2018,10,21,00,49,7.50
2018,10,21,00,50,7.50
2018,10,21,00,51,7.50
2018,10,21,00,52,7.60
2018,10,21,00,53,7.60
2018,10,21,00,54,7.60
2018,10,21,00,55,7.60
2018,10,21,00,56,7.50
2018,10,21,00,57,7.50
2018,10,21,00,58,7.50
2018,10,21,00,59,7.50
2018,10,21,01,00,7.50
2018,10,21,01,01,7.60
2018,10,21,01,02,7.60
2018,10,21,01,03,7.60
2018,10,21,01,04,7.60
2018,10,21,01,05,7.60
2018,10,21,01,06,7.50
2018,10,21,01,07,7.50
2018,10,21,01,08,7.50
2018,10,21,01,09,7.40
2018,10,21,01,10,7.40
2018,10,21,01,11,7.40
2018,10,21,01,12,7.40
2018,10,21,01,13,7.30
2018,10,21,01,14,7.30
2018,10,21,01,15,7.30
2018,10,21,01,16,7.30
2018,10,21,01,17,7.30
2018,10,21,01,18,7.30
2018,10,21,01,19,7.20
2018,10,21,01,20,7.20
2018,10,21,01,21,7.30
2018,10,21,01,22,7.30
2018,10,21,01,23,7.30
2018,10,21,01,24,7.30
2018,10,21,01,25,7.30
2018,10,21,01,26,7.30
2018,10,21,01,27,7.30
2018,10,21,01,28,7.30
2018,10,21,01,29,7.20
2018,10,21,01,30,7.20
2018,10,21,01,31,7.20
2018,10,21,01,32,7.30
2018,10,21,01,33,7.30
2018,10,21,01,34,7.30
2018,10,21,01,35,7.40
2018,10,21,01,36,7.40
2018,10,21,01,37,7.40
2018,10,21,01,38,7.40
2018,10,21,01,39,7.40
2018,10,21,01,40,7.40
2018,10,21,01,41,7.30
2018,10,21,01,42,7.30
2018,10,21,01,43,7.30
2018,10,21,01,44,7.30
2018,10,21,01,45,7.20
2018,10,21,01,46,7.20
2018,10,21,01,47,7.20
2018,10,21,01,48,7.10
2018,10,21,01,49,7.10
2018,10,21,01,50,7.10
2018,10,21,01,51,7.10
2018,10,21,01,52,7.10
2018,10,21,01,53,7.10
2018,10,21,01,54,7.10
2018,10,21,01,55,7.10
2018,10,21,01,56,7.10
2018,10,21,01,57,7.10
2018,10,21,01,58,7.10
2018,10,21,01,59,7.10
2018,10,21,02,00,7.00
2018,10,21,02,01,7.00
2018,10,21,02,02,7.00
2018,10,21,02,03,7.00
2018,10,21,02,04,7.10
2018,10,21,02,05,7.10
2018,10,21,02,06,7.10
2018,10,21,02,07,7.10
2018,10,21,02,08,7.10
2018,10,21,02,09,7.10
2018,10,21,02,10,7.00
2018,10,21,02,11,7.00
2018,10,21,02,12,7.00
2018,10,21,02,13,7.00
2018,10,21,02,14,7.00
2018,10,21,02,15,6.90
2018,10,21,02,16,6.90
2018,10,21,02,17,6.90
2018,10,21,02,18,6.80
2018,10,21,02,19,6.80
2018,10,21,02,20,6.80
2018,10,21,02,21,6.80
2018,10,21,02,22,6.80
2018,10,21,02,23,6.80
2018,10,21,02,24,6.70
2018,10,21,02,25,6.80
2018,10,21,02,26,6.80
2018,10,21,02,27,6.80
2018,10,21,02,28,6.80
2018,10,21,02,29,6.80
2018,10,21,02,30,6.80
2018,10,21,02,31,6.80
2018,10,21,02,32,6.90
2018,10,21,02,33,6.90
2018,10,21,02,34,6.80
2018,10,21,02,35,6.80
2018,10,21,02,36,6.80
2018,10,21,02,37,6.80
2018,10,21,02,38,6.80
2018,10,21,02,39,6.80
2018,10,21,02,40,6.80
2018,10,21,02,41,6.80
2018,10,21,02,42,6.80
2018,10,21,02,43,6.80
2018,10,21,02,44,6.80
2018,10,21,02,45,6.80
2018,10,21,02,46,6.80
2018,10,21,02,47,6.80
2018,10,21,02,48,6.80
2018,10,21,02,49,6.80
2018,10,21,02,50,6.70
2018,10,21,02,51,6.70
2018,10,21,02,52,6.70
2018,10,21,02,53,6.60
2018,10,21,02,54,6.60
2018,10,21,02,55,6.60
2018,10,21,02,56,6.60
2018,10,21,02,57,6.60
2018,10,21,02,58,6.60
2018,10,21,02,59,6.60
2018,10,21,03,00,6.60
2018,10,21,03,01,6.60
2018,10,21,03,02,6.60
2018,10,21,03,03,6.60
2018,10,21,03,04,6.60
2018,10,21,03,05,6.70
2018,10,21,03,06,6.70
2018,10,21,03,07,6.70
2018,10,21,03,08,6.70
2018,10,21,03,09,6.70
2018,10,21,03,10,6.70
2018,10,21,03,11,6.70
2018,10,21,03,12,6.70
2018,10,21,03,13,6.60
2018,10,21,03,14,6.60
2018,10,21,03,15,6.60
2018,10,21,03,16,6.50
2018,10,21,03,17,6.50
2018,10,21,03,18,6.50
2018,10,21,03,19,6.50
2018,10,21,03,20,6.50
2018,10,21,03,21,6.50
2018,10,21,03,22,6.50
2018,10,21,03,23,6.50
2018,10,21,03,24,6.50
2018,10,21,03,25,6.50
2018,10,21,03,26,6.50
2018,10,21,03,27,6.50
2018,10,21,03,28,6.50
2018,10,21,03,29,6.50
2018,10,21,03,30,6.50
2018,10,21,03,31,6.50
2018,10,21,03,32,6.50
2018,10,21,03,33,6.40
2018,10,21,03,34,6.40
2018,10,21,03,35,6.40
2018,10,21,03,36,6.40
2018,10,21,03,37,6.40
2018,10,21,03,38,6.40
2018,10,21,03,39,6.40
2018,10,21,03,40,6.40
2018,10,21,03,41,6.40
2018,10,21,03,42,6.40
2018,10,21,03,43,6.40
2018,10,21,03,44,6.40
2018,10,21,03,45,6.40
2018,10,21,03,46,6.40
2018,10,21,03,47,6.40
2018,10,21,03,48,6.40
2018,10,21,03,49,6.40
2018,10,21,03,50,6.40
2018,10,21,03,51,6.40
2018,10,21,03,52,6.40
2018,10,21,03,53,6.40
2018,10,21,03,54,6.40
2018,10,21,03,55,6.50
2018,10,21,03,56,6.50
2018,10,21,03,57,6.50
2018,10,21,03,58,6.50
2018,10,21,03,59,6.50
2018,10,21,04,00,6.50
2018,10,21,04,01,6.40
2018,10,21,04,02,6.40
2018,10,21,04,03,6.40
2018,10,21,04,04,6.40
2018,10,21,04,05,6.40
2018,10,21,04,06,6.40
2018,10,21,04,07,6.40
2018,10,21,04,08,6.40
2018,10,21,04,09,6.40
2018,10,21,04,10,6.40
2018,10,21,04,11,6.40
2018,10,21,04,12,6.40
2018,10,21,04,13,6.40
2018,10,21,04,14,6.30
2018,10,21,04,15,6.30
2018,10,21,04,16,6.30
2018,10,21,04,17,6.30
2018,10,21,04,18,6.30
2018,10,21,04,19,6.30
2018,10,21,04,20,6.30
2018,10,21,04,21,6.30
2018,10,21,04,22,6.30
2018,10,21,04,23,6.30
2018,10,21,04,24,6.30
2018,10,21,04,25,6.30
2018,10,21,04,26,6.30
2018,10,21,04,27,6.30
2018,10,21,04,28,6.30
2018,10,21,04,29,6.30
2018,10,21,04,30,6.30
2018,10,21,04,31,6.30
2018,10,21,04,32,6.30
2018,10,21,04,33,6.30
2018,10,21,04,34,6.40
2018,10,21,04,35,6.40
2018,10,21,04,36,6.40
2018,10,21,04,37,6.40
2018,10,21,04,38,6.40
2018,10,21,04,39,6.40
2018,10,21,04,40,6.40
2018,10,21,04,41,6.40
2018,10,21,04,42,6.40
2018,10,21,04,43,6.40
2018,10,21,04,44,6.40
2018,10,21,04,45,6.40
2018,10,21,04,46,6.40
2018,10,21,04,47,6.30
2018,10,21,04,48,6.30
2018,10,21,04,49,6.30
2018,10,21,04,50,6.30
2018,10,21,04,51,6.30
2018,10,21,04,52,6.30
2018,10,21,04,53,6.20
2018,10,21,04,54,6.20
2018,10,21,04,55,6.20
2018,10,21,04,56,6.20
2018,10,21,04,57,6.20
2018,10,21,04,58,6.20
2018,10,21,04,59,6.20
2018,10,21,05,00,6.20
2018,10,21,05,01,6.20
2018,10,21,05,02,6.20
2018,10,21,05,03,6.20
2018,10,21,05,04,6.30
2018,10,21,05,05,6.30
2018,10,21,05,06,6.30
2018,10,21,05,07,6.30
2018,10,21,05,08,6.30
2018,10,21,05,09,6.30
2018,10,21,05,10,6.20
2018,10,21,05,11,6.20
2018,10,21,05,12,6.20
2018,10,21,05,13,6.20
2018,10,21,05,14,6.20
2018,10,21,05,15,6.20
2018,10,21,05,16,6.10
2018,10,21,05,17,6.10
2018,10,21,05,18,6.10
2018,10,21,05,19,6.10
2018,10,21,05,20,6.10
2018,10,21,05,21,6.10
2018,10,21,05,22,6.10
2018,10,21,05,23,6.20
2018,10,21,05,24,6.10
2018,10,21,05,25,6.20
2018,10,21,05,26,6.20
2018,10,21,05,27,6.20
2018,10,21,05,28,6.20
2018,10,21,05,29,6.20
2018,10,21,05,30,6.20
2018,10,21,05,31,6.20
2018,10,21,05,32,6.20
2018,10,21,05,33,6.20
2018,10,21,05,34,6.20
2018,10,21,05,35,6.20
2018,10,21,05,36,6.20
2018,10,21,05,37,6.20
2018,10,21,05,38,6.20
2018,10,21,05,39,6.20
2018,10,21,05,40,6.20
2018,10,21,05,41,6.10
2018,10,21,05,42,6.20
2018,10,21,05,43,6.20
2018,10,21,05,44,6.10
2018,10,21,05,45,6.20
2018,10,21,05,46,6.20
2018,10,21,05,47,6.20
2018,10,21,05,48,6.20
2018,10,21,05,49,6.20
2018,10,21,05,50,6.20
2018,10,21,05,51,6.20
2018,10,21,05,52,6.20
2018,10,21,05,53,6.20
2018,10,21,05,54,6.20
2018,10,21,05,55,6.10
2018,10,21,05,56,6.10
2018,10,21,05,57,6.00
2018,10,21,05,58,6.00
2018,10,21,05,59,6.00
2018,10,21,06,00,6.00
2018,10,21,06,01,6.00
2018,10,21,06,02,6.10
2018,10,21,06,03,6.10
2018,10,21,06,04,6.10
2018,10,21,06,05,6.00
2018,10,21,06,06,6.00
2018,10,21,06,07,6.00
2018,10,21,06,08,6.00
2018,10,21,06,09,5.90
2018,10,21,06,10,5.90
2018,10,21,06,11,5.90
2018,10,21,06,12,5.90
2018,10,21,06,13,5.90
2018,10,21,06,14,5.90
2018,10,21,06,15,5.90
2018,10,21,06,16,5.80
2018,10,21,06,17,5.80
2018,10,21,06,18,5.80
2018,10,21,06,19,5.80
2018,10,21,06,20,5.80
2018,10,21,06,21,5.80
2018,10,21,06,22,5.80
2018,10,21,06,23,5.80
2018,10,21,06,24,5.90
2018,10,21,06,25,5.90
2018,10,21,06,26,5.90
2018,10,21,06,27,5.90
2018,10,21,06,28,5.90
2018,10,21,06,29,5.90
2018,10,21,06,30,5.90
2018,10,21,06,31,5.90
2018,10,21,06,32,5.90
2018,10,21,06,33,5.90
2018,10,21,06,34,5.80
2018,10,21,06,35,5.80
2018,10,21,06,36,5.80
2018,10,21,06,37,5.80
2018,10,21,06,38,5.80
2018,10,21,06,39,5.80
2018,10,21,06,40,5.80
2018,10,21,06,41,5.80
2018,10,21,06,42,5.80
2018,10,21,06,43,5.70
2018,10,21,06,44,5.70
2018,10,21,06,45,5.70
2018,10,21,06,46,5.70
2018,10,21,06,47,5.70
2018,10,21,06,48,5.70
2018,10,21,06,49,5.70
2018,10,21,06,50,5.70
2018,10,21,06,51,5.70
2018,10,21,06,52,5.70
2018,10,21,06,53,5.70
2018,10,21,06,54,5.80
2018,10,21,06,55,5.80
2018,10,21,06,56,5.80
2018,10,21,06,57,5.80
2018,10,21,06,58,5.70
2018,10,21,06,59,5.70
2018,10,21,07,00,5.70
2018,10,21,07,01,5.70
2018,10,21,07,02,5.70
2018,10,21,07,03,5.70
2018,10,21,07,04,5.70
2018,10,21,07,05,5.70
2018,10,21,07,06,5.70
2018,10,21,07,07,5.70
2018,10,21,07,08,5.70
2018,10,21,07,09,5.70
2018,10,21,07,10,5.70
2018,10,21,07,11,5.70
2018,10,21,07,12,5.70
2018,10,21,07,13,5.70
2018,10,21,07,14,5.60
2018,10,21,07,15,5.60
2018,10,21,07,16,5.60
2018,10,21,07,17,5.60
2018,10,21,07,18,5.60
2018,10,21,07,19,5.50
2018,10,21,07,20,5.50
2018,10,21,07,21,5.50
2018,10,21,07,22,5.50
2018,10,21,07,23,5.50
2018,10,21,07,24,5.50
2018,10,21,07,25,5.60
2018,10,21,07,26,5.60
2018,10,21,07,27,5.60
2018,10,21,07,28,5.70
2018,10,21,07,29,5.70
2018,10,21,07,30,5.70
2018,10,21,07,31,5.80
2018,10,21,07,32,5.80
2018,10,21,07,33,5.80
2018,10,21,07,34,5.70
2018,10,21,07,35,5.70
2018,10,21,07,36,5.70
2018,10,21,07,37,5.70
2018,10,21,07,38,5.70
2018,10,21,07,39,5.70
2018,10,21,07,40,5.70
2018,10,21,07,41,5.60
2018,10,21,07,42,5.60
2018,10,21,07,43,5.60
2018,10,21,07,44,5.60
2018,10,21,07,45,5.60
2018,10,21,07,46,5.60
2018,10,21,07,47,5.60
2018,10,21,07,48,5.60
2018,10,21,07,49,5.50
2018,10,21,07,50,5.50
2018,10,21,07,51,5.50
2018,10,21,07,52,5.50
2018,10,21,07,53,5.50
2018,10,21,07,54,5.50
2018,10,21,07,55,5.60
2018,10,21,07,56,5.60
2018,10,21,07,57,5.60
2018,10,21,07,58,5.50
2018,10,21,07,59,5.50
2018,10,21,08,00,5.50
2018,10,21,08,01,5.50
2018,10,21,08,02,5.50
2018,10,21,08,03,5.50
2018,10,21,08,04,5.50
2018,10,21,08,05,5.60
2018,10,21,08,06,5.60
2018,10,21,08,07,5.70
2018,10,21,08,08,5.70
2018,10,21,08,09,5.80
2018,10,21,08,10,5.90
2018,10,21,08,11,5.90
2018,10,21,08,12,6.00
2018,10,21,08,13,6.00
2018,10,21,08,14,6.10
2018,10,21,08,15,6.10
2018,10,21,08,16,6.20
2018,10,21,08,17,6.20
2018,10,21,08,18,6.30
2018,10,21,08,19,6.30
2018,10,21,08,20,6.30
2018,10,21,08,21,6.30
2018,10,21,08,22,6.30
2018,10,21,08,23,6.30
2018,10,21,08,24,6.30
2018,10,21,08,25,6.30
2018,10,21,08,26,6.40
2018,10,21,08,27,6.50
2018,10,21,08,28,6.50
2018,10,21,08,29,6.60
2018,10,21,08,30,6.60
2018,10,21,08,31,6.60
2018,10,21,08,32,6.60
2018,10,21,08,33,6.60
2018,10,21,08,34,6.60
2018,10,21,08,35,6.60
2018,10,21,08,36,6.60
2018,10,21,08,37,6.70
2018,10,21,08,38,6.70
2018,10,21,08,39,6.70
2018,10,21,08,40,6.80
2018,10,21,08,41,6.80
2018,10,21,08,42,6.90
2018,10,21,08,43,6.90
2018,10,21,08,44,6.90
2018,10,21,08,45,6.90
2018,10,21,08,46,6.90
2018,10,21,08,47,6.90
2018,10,21,08,48,6.90
2018,10,21,08,49,7.00
2018,10,21,08,50,7.00
2018,10,21,08,51,7.10
2018,10,21,08,52,7.10
2018,10,21,08,53,7.10
2018,10,21,08,54,7.20
2018,10,21,08,55,7.20
2018,10,21,08,56,7.20
2018,10,21,08,57,7.20
2018,10,21,08,58,7.20
2018,10,21,08,59,7.20
2018,10,21,09,00,7.20
2018,10,21,09,01,7.30
2018,10,21,09,02,7.30
2018,10,21,09,03,7.40
2018,10,21,09,04,7.60
2018,10,21,09,05,7.70
2018,10,21,09,06,7.80
2018,10,21,09,07,7.80
2018,10,21,09,08,7.90
2018,10,21,09,09,8.00
2018,10,21,09,10,8.10
2018,10,21,09,11,8.10
2018,10,21,09,12,8.20
2018,10,21,09,13,8.20
2018,10,21,09,14,8.20
2018,10,21,09,15,8.30
2018,10,21,09,16,8.40
2018,10,21,09,17,8.50
2018,10,21,09,18,8.70
2018,10,21,09,19,8.80
2018,10,21,09,20,9.00
2018,10,21,09,21,9.20
2018,10,21,09,22,9.30
2018,10,21,09,23,9.40
2018,10,21,09,24,9.50
2018,10,21,09,25,9.60
2018,10,21,09,26,9.70
2018,10,21,09,27,9.80
2018,10,21,09,28,9.80
2018,10,21,09,29,9.90
2018,10,21,09,30,9.90
2018,10,21,09,31,9.90
2018,10,21,09,32,10.00
2018,10,21,09,33,10.10
2018,10,21,09,34,10.10
2018,10,21,09,35,10.10
2018,10,21,09,36,10.20
2018,10,21,09,37,10.20
2018,10,21,09,38,10.20
2018,10,21,09,39,10.30
2018,10,21,09,40,10.30
2018,10,21,09,41,10.30
2018,10,21,09,42,10.30
2018,10,21,09,43,10.40
2018,10,21,09,44,10.40
2018,10,21,09,45,10.40
2018,10,21,09,46,10.40
2018,10,21,09,47,10.50
2018,10,21,09,48,10.50
2018,10,21,09,49,10.60
2018,10,21,09,50,10.60
2018,10,21,09,51,10.60
2018,10,21,09,52,10.70
2018,10,21,09,53,10.70
2018,10,21,09,54,10.80
2018,10,21,09,55,10.80
2018,10,21,09,56,10.80
2018,10,21,09,57,10.80
2018,10,21,09,58,10.90
2018,10,21,09,59,10.90
2018,10,21,10,00,11.00
2018,10,21,10,01,11.10
2018,10,21,10,02,11.10
2018,10,21,10,03,11.10
2018,10,21,10,04,11.10
2018,10,21,10,05,11.10
2018,10,21,10,06,11.10
2018,10,21,10,07,11.10
2018,10,21,10,08,11.20
2018,10,21,10,09,11.20
2018,10,21,10,10,11.30
2018,10,21,10,11,11.30
2018,10,21,10,12,11.30
2018,10,21,10,13,11.40
2018,10,21,10,14,11.40
2018,10,21,10,15,11.40
2018,10,21,10,16,11.40
2018,10,21,10,17,11.50
2018,10,21,10,18,11.50
2018,10,21,10,19,11.60
2018,10,21,10,20,11.60
2018,10,21,10,21,11.60
2018,10,21,10,22,11.60
2018,10,21,10,23,11.60
2018,10,21,10,24,11.70
2018,10,21,10,25,11.70
2018,10,21,10,26,11.70
2018,10,21,10,27,11.80
2018,10,21,10,28,11.80
2018,10,21,10,29,11.90
2018,10,21,10,30,11.90
2018,10,21,10,31,11.90
2018,10,21,10,32,12.00
2018,10,21,10,33,12.10
2018,10,21,10,34,12.20
2018,10,21,10,35,12.20
2018,10,21,10,36,12.30
2018,10,21,10,37,12.30
2018,10,21,10,38,12.40
2018,10,21,10,39,12.40
2018,10,21,10,40,12.40
2018,10,21,10,41,12.40
2018,10,21,10,42,12.40
2018,10,21,10,43,12.40
2018,10,21,10,44,12.40
2018,10,21,10,45,12.40
2018,10,21,10,46,12.40
2018,10,21,10,47,12.50
2018,10,21,10,48,12.50
2018,10,21,10,49,12.40
2018,10,21,10,50,12.50
2018,10,21,10,51,12.50
2018,10,21,10,52,12.50
2018,10,21,10,53,12.60
2018,10,21,10,54,12.60
2018,10,21,10,55,12.60
2018,10,21,10,56,12.70
2018,10,21,10,57,12.70
2018,10,21,10,58,12.80
2018,10,21,10,59,12.90
2018,10,21,11,00,12.90
2018,10,21,11,01,13.00
2018,10,21,11,02,13.00
2018,10,21,11,03,13.10
2018,10,21,11,04,13.10
2018,10,21,11,05,13.20
2018,10,21,11,06,13.20
2018,10,21,11,07,13.20
2018,10,21,11,08,13.20
2018,10,21,11,09,13.30
2018,10,21,11,10,13.30
2018,10,21,11,11,13.30
2018,10,21,11,12,13.30
2018,10,21,11,13,13.30
2018,10,21,11,14,13.30
2018,10,21,11,15,13.30
2018,10,21,11,16,13.30
2018,10,21,11,17,13.30
2018,10,21,11,18,13.30
2018,10,21,11,19,13.40
2018,10,21,11,20,13.50
2018,10,21,11,21,13.60
2018,10,21,11,22,13.70
2018,10,21,11,23,13.80
2018,10,21,11,24,13.90
2018,10,21,11,25,13.90
2018,10,21,11,26,13.90
2018,10,21,11,27,13.90
2018,10,21,11,28,13.90
2018,10,21,11,29,13.90
2018,10,21,11,30,13.90
2018,10,21,11,31,14.00
2018,10,21,11,32,14.00
2018,10,21,11,33,14.00
2018,10,21,11,34,13.90
2018,10,21,11,35,13.90
2018,10,21,11,36,13.90
2018,10,21,11,37,13.90
2018,10,21,11,38,13.90
2018,10,21,11,39,13.90
2018,10,21,11,40,13.90
2018,10,21,11,41,14.00
2018,10,21,11,42,14.00
2018,10,21,11,43,14.00
2018,10,21,11,44,14.00
2018,10,21,11,45,14.10
2018,10,21,11,46,14.20
2018,10,21,11,47,14.20
2018,10,21,11,48,14.30
2018,10,21,11,49,14.30
2018,10,21,11,50,14.30
2018,10,21,11,51,14.40
2018,10,21,11,52,14.50
2018,10,21,11,53,14.50
2018,10,21,11,54,14.50
2018,10,21,11,55,14.40
2018,10,21,11,56,14.40
2018,10,21,11,57,14.40
2018,10,21,11,58,14.40
2018,10,21,11,59,14.40
2018,10,21,12,00,14.40
2018,10,21,12,01,14.40
2018,10,21,12,02,14.40
2018,10,21,12,03,14.40
2018,10,21,12,04,14.40
2018,10,21,12,05,14.40
2018,10,21,12,06,14.40
2018,10,21,12,07,14.40
2018,10,21,12,08,14.30
2018,10,21,12,09,14.30
2018,10,21,12,10,14.30
2018,10,21,12,11,14.40
2018,10,21,12,12,14.40
2018,10,21,12,13,14.30
2018,10,21,12,14,14.30
2018,10,21,12,15,14.30
2018,10,21,12,16,14.40
2018,10,21,12,17,14.40
2018,10,21,12,18,14.40
2018,10,21,12,19,14.30
2018,10,21,12,20,14.30
2018,10,21,12,21,14.20
2018,10,21,12,22,14.30
2018,10,21,12,23,14.30
2018,10,21,12,24,14.30
2018,10,21,12,25,14.30
2018,10,21,12,26,14.30
2018,10,21,12,27,14.30
2018,10,21,12,28,14.30
2018,10,21,12,29,14.30
2018,10,21,12,30,14.30
2018,10,21,12,31,14.30
2018,10,21,12,32,14.30
2018,10,21,12,33,14.30
2018,10,21,12,34,14.30
2018,10,21,12,35,14.30
2018,10,21,12,36,14.40
2018,10,21,12,37,14.40
2018,10,21,12,38,14.50
2018,10,21,12,39,14.50
2018,10,21,12,40,14.50
2018,10,21,12,41,14.50
2018,10,21,12,42,14.50
2018,10,21,12,43,14.60
2018,10,21,12,44,14.60
2018,10,21,12,45,14.50
2018,10,21,12,46,14.50
2018,10,21,12,47,14.50
2018,10,21,12,48,14.60
2018,10,21,12,49,14.60
2018,10,21,12,50,14.60
2018,10,21,12,51,14.60
2018,10,21,12,52,14.60
2018,10,21,12,53,14.60
2018,10,21,12,54,14.50
2018,10,21,12,55,14.50
2018,10,21,12,56,14.50
2018,10,21,12,57,14.60
2018,10,21,12,58,14.60
2018,10,21,12,59,14.60
2018,10,21,13,00,14.70
2018,10,21,13,01,14.70
2018,10,21,13,02,14.80
2018,10,21,13,03,14.90
2018,10,21,13,04,14.90
2018,10,21,13,05,15.00
2018,10,21,13,06,14.90
2018,10,21,13,07,14.90
2018,10,21,13,08,14.90
2018,10,21,13,09,15.00
2018,10,21,13,10,15.00
2018,10,21,13,11,15.00
2018,10,21,13,12,15.10
2018,10,21,13,13,15.10
2018,10,21,13,14,15.10
2018,10,21,13,15,15.10
2018,10,21,13,16,15.20
2018,10,21,13,17,15.20
2018,10,21,13,18,15.20
2018,10,21,13,19,15.30
2018,10,21,13,20,15.30
2018,10,21,13,21,15.30
2018,10,21,13,22,15.30
2018,10,21,13,23,15.30
2018,10,21,13,24,15.40
2018,10,21,13,25,15.50
2018,10,21,13,26,15.60
2018,10,21,13,27,15.70
2018,10,21,13,28,15.70
2018,10,21,13,29,15.70
2018,10,21,13,30,15.70
2018,10,21,13,31,15.80
2018,10,21,13,32,15.80
2018,10,21,13,33,15.90
2018,10,21,13,34,16.00
2018,10,21,13,35,16.00
2018,10,21,13,36,16.10
2018,10,21,13,37,16.20
2018,10,21,13,38,16.20
2018,10,21,13,39,16.30
2018,10,21,13,40,16.30
2018,10,21,13,41,16.40
2018,10,21,13,42,16.40
2018,10,21,13,43,16.40
2018,10,21,13,44,16.50
2018,10,21,13,45,16.50
2018,10,21,13,46,16.40
2018,10,21,13,47,16.40
2018,10,21,13,48,16.30
2018,10,21,13,49,16.30
2018,10,21,13,50,16.40
2018,10,21,13,51,16.40
2018,10,21,13,52,16.50
2018,10,21,13,53,16.50
2018,10,21,13,54,16.50
2018,10,21,13,55,16.50
2018,10,21,13,56,16.50
2018,10,21,13,57,16.40
2018,10,21,13,58,16.40
2018,10,21,13,59,16.40
2018,10,21,14,00,16.40
2018,10,21,14,01,16.40
2018,10,21,14,02,16.30
2018,10,21,14,03,16.40
2018,10,21,14,04,16.40
2018,10,21,14,05,16.50
2018,10,21,14,06,16.50
2018,10,21,14,07,16.60
2018,10,21,14,08,16.60
2018,10,21,14,09,16.60
2018,10,21,14,10,16.60
2018,10,21,14,11,16.70
2018,10,21,14,12,16.70
2018,10,21,14,13,16.70
2018,10,21,14,14,16.80
2018,10,21,14,15,16.80
2018,10,21,14,16,16.90
2018,10,21,14,17,16.90
2018,10,21,14,18,17.00
2018,10,21,14,19,17.10
2018,10,21,14,20,17.10
2018,10,21,14,21,17.10
2018,10,21,14,22,17.00
2018,10,21,14,23,17.00
2018,10,21,14,24,17.00
2018,10,21,14,25,17.00
2018,10,21,14,26,16.90
2018,10,21,14,27,16.80
2018,10,21,14,28,16.80
2018,10,21,14,29,16.70
2018,10,21,14,30,16.60
2018,10,21,14,31,16.50
2018,10,21,14,32,16.50
2018,10,21,14,33,16.40
2018,10,21,14,34,16.50
2018,10,21,14,35,16.50
2018,10,21,14,36,16.60
2018,10,21,14,37,16.60
2018,10,21,14,38,16.60
2018,10,21,14,39,16.60
2018,10,21,14,40,16.50
2018,10,21,14,41,16.50
2018,10,21,14,42,16.50
2018,10,21,14,43,16.50
2018,10,21,14,44,16.60
2018,10,21,14,45,16.60
2018,10,21,14,46,16.60
2018,10,21,14,47,16.70
2018,10,21,14,48,16.80
2018,10,21,14,49,16.90
2018,10,21,14,50,16.90
2018,10,21,14,51,16.90
2018,10,21,14,52,16.90
2018,10,21,14,53,16.90
2018,10,21,14,54,16.90
2018,10,21,14,55,16.80
2018,10,21,14,56,16.70
2018,10,21,14,57,16.70
2018,10,21,14,58,16.70
2018,10,21,14,59,16.70
2018,10,21,15,00,16.70
2018,10,21,15,01,16.70
2018,10,21,15,02,16.70
2018,10,21,15,03,16.70
2018,10,21,15,04,16.70
2018,10,21,15,05,16.70
2018,10,21,15,06,16.80
2018,10,21,15,07,16.80
2018,10,21,15,08,16.80
2018,10,21,15,09,16.80
2018,10,21,15,10,16.80
2018,10,21,15,11,16.80
2018,10,21,15,12,16.90
2018,10,21,15,13,17.00
2018,10,21,15,14,17.00
2018,10,21,15,15,17.10
2018,10,21,15,16,17.20
2018,10,21,15,17,17.10
2018,10,21,15,18,17.00
2018,10,21,15,19,16.90
2018,10,21,15,20,16.90
2018,10,21,15,21,16.90
2018,10,21,15,22,16.80
2018,10,21,15,23,16.80
2018,10,21,15,24,16.80
2018,10,21,15,25,16.80
2018,10,21,15,26,16.80
2018,10,21,15,27,16.80
2018,10,21,15,28,16.80
2018,10,21,15,29,16.80
2018,10,21,15,30,16.70
2018,10,21,15,31,16.60
2018,10,21,15,32,16.60
2018,10,21,15,33,16.50
2018,10,21,15,34,16.60
2018,10,21,15,35,16.60
2018,10,21,15,36,16.60
2018,10,21,15,37,16.60
2018,10,21,15,38,16.50
2018,10,21,15,39,16.50
2018,10,21,15,40,16.50
2018,10,21,15,41,16.50
2018,10,21,15,42,16.40
2018,10,21,15,43,16.40
2018,10,21,15,44,16.30
2018,10,21,15,45,16.30
2018,10,21,15,46,16.20
2018,10,21,15,47,16.20
2018,10,21,15,48,16.10
2018,10,21,15,49,16.10
2018,10,21,15,50,16.00
2018,10,21,15,51,15.90
2018,10,21,15,52,15.80
2018,10,21,15,53,15.70
2018,10,21,15,54,15.60
2018,10,21,15,55,15.50
2018,10,21,15,56,15.40
2018,10,21,15,57,15.40
2018,10,21,15,58,15.30
2018,10,21,15,59,15.20
2018,10,21,16,00,15.10
2018,10,21,16,01,15.00
2018,10,21,16,02,15.00
2018,10,21,16,03,14.90
2018,10,21,16,04,14.90
2018,10,21,16,05,14.80
2018,10,21,16,06,14.80
2018,10,21,16,07,14.80
2018,10,21,16,08,14.80
2018,10,21,16,09,14.70
2018,10,21,16,10,14.70
2018,10,21,16,11,14.70
2018,10,21,16,12,14.70
2018,10,21,16,13,14.70
2018,10,21,16,14,14.60
2018,10,21,16,15,14.50
2018,10,21,16,16,14.40
2018,10,21,16,17,14.40
2018,10,21,16,18,14.30
2018,10,21,16,19,14.20
2018,10,21,16,20,14.20
2018,10,21,16,21,14.20
2018,10,21,16,22,14.20
2018,10,21,16,23,14.20
2018,10,21,16,24,14.30
2018,10,21,16,25,14.30
2018,10,21,16,26,14.30
2018,10,21,16,27,14.30
2018,10,21,16,28,14.30
2018,10,21,16,29,14.20
2018,10,21,16,30,14.20
2018,10,21,16,31,14.20
2018,10,21,16,32,14.20
2018,10,21,16,33,14.20
2018,10,21,16,34,14.20
2018,10,21,16,35,14.20
2018,10,21,16,36,14.20
2018,10,21,16,37,14.20
2018,10,21,16,38,14.30
2018,10,21,16,39,14.30
2018,10,21,16,40,14.30
2018,10,21,16,41,14.40
2018,10,21,16,42,14.50
2018,10,21,16,43,14.60
2018,10,21,16,44,14.70
2018,10,21,16,45,14.70
2018,10,21,16,46,14.80
2018,10,21,16,47,14.80
2018,10,21,16,48,14.80
2018,10,21,16,49,14.90
2018,10,21,16,50,14.90
2018,10,21,16,51,14.90
2018,10,21,16,52,14.90
2018,10,21,16,53,14.90
2018,10,21,16,54,14.90
2018,10,21,16,55,14.90
2018,10,21,16,56,14.90
2018,10,21,16,57,14.90
2018,10,21,16,58,14.90
2018,10,21,16,59,14.80
2018,10,21,17,00,14.80
2018,10,21,17,01,14.80
2018,10,21,17,02,14.80
2018,10,21,17,03,14.70
2018,10,21,17,04,14.70
2018,10,21,17,05,14.60
2018,10,21,17,06,14.50
2018,10,21,17,07,14.40
2018,10,21,17,08,14.40
2018,10,21,17,09,14.40
2018,10,21,17,10,14.30
2018,10,21,17,11,14.30
2018,10,21,17,12,14.20
2018,10,21,17,13,14.20
2018,10,21,17,14,14.20
2018,10,21,17,15,14.10
2018,10,21,17,16,14.10
2018,10,21,17,17,14.00
2018,10,21,17,18,13.90
2018,10,21,17,19,13.90
2018,10,21,17,20,13.80
2018,10,21,17,21,13.80
2018,10,21,17,22,13.80
2018,10,21,17,23,13.70
2018,10,21,17,24,13.60
2018,10,21,17,25,13.60
2018,10,21,17,26,13.50
2018,10,21,17,27,13.50
2018,10,21,17,28,13.40
2018,10,21,17,29,13.40
2018,10,21,17,30,13.40
2018,10,21,17,31,13.30
2018,10,21,17,32,13.30
2018,10,21,17,33,13.30
2018,10,21,17,34,13.30
2018,10,21,17,35,13.30
2018,10,21,17,36,13.30
2018,10,21,17,37,13.30
2018,10,21,17,38,13.30
2018,10,21,17,39,13.30
2018,10,21,17,40,13.30
2018,10,21,17,41,13.30
2018,10,21,17,42,13.30
2018,10,21,17,43,13.30
2018,10,21,17,44,13.30